When you browse on this site, cookies collect data to enhance your experience and personalize the content and advertising you see.
Visit our Privacy Policy to learn more. By continuing to use the site, you agree to this use of cookies and data.
  • In Italy
  • List of Countries
  • For 7 days
  • Water Temperature
  • Satellite Maps
  • Weather Map
  • Weather Widgets
  • user-avatar
    Login

    Hourly Weather Bregenz

    Today, 12 December, Wednesday

    Time Temperature Precipitation Wind Pressure Humidity
    00:00 -13°C° 0 mm 2 mps 645 mmHg 80%
    01:00 -13°C° 0 mm 2 mps 645 mmHg 79%
    02:00 -13°C° 0 mm 2 mps 645 mmHg 78%
    03:00 -13°C° 0 mm 2 mps 645 mmHg 78%
    04:00 -13°C° 0 mm 2 mps 645 mmHg 77%
    05:00 -13°C° 0 mm 2 mps 645 mmHg 76%
    06:00 -13°C° 0 mm 2 mps 645 mmHg 76%
    07:00 -13°C° 0 mm 2 mps 645 mmHg 75%
    08:00 -10°C° 0 mm 1 mps 645 mmHg 74%
    09:00 -9°C° 0 mm 1 mps 645 mmHg 73%
    10:00 -8°C° 0 mm 1 mps 645 mmHg 73%
    11:00 -6°C° 0 mm 1 mps 645 mmHg 70%
    12:00 -4°C° 0 mm 1 mps 645 mmHg 67%
    13:00 -2°C° 0 mm 1 mps 645 mmHg 64%
    14:00 -3°C° 0 mm 1 mps 645 mmHg 69%
    15:00 -4°C° 0 mm 1 mps 644 mmHg 74%
    16:00 -7°C° 0 mm 1 mps 644 mmHg 79%
    17:00 -8°C° 0 mm 2 mps 644 mmHg 79%
    18:00 -9°C° 0 mm 2 mps 644 mmHg 78%
    19:00 -10°C° 0 mm 2 mps 643 mmHg 78%
    20:00 -12°C° 0 mm 2 mps 643 mmHg 76%
    21:00 -12°C° 0 mm 2 mps 643 mmHg 74%
    22:00 -12°C° 0 mm 2 mps 643 mmHg 72%
    23:00 -12°C° 0 mm 2 mps 643 mmHg 71%

    Tomorrow, 13 December, Thursday

    Time Temperature Precipitation Wind Pressure Humidity
    00:00 -12°C° 0 mm 2 mps 642 mmHg 71%
    01:00 -13°C° 0 mm 2 mps 642 mmHg 70%
    02:00 -13°C° 0 mm 2 mps 642 mmHg 70%
    03:00 -13°C° 0 mm 2 mps 641 mmHg 70%
    04:00 -13°C° 0 mm 2 mps 641 mmHg 69%
    05:00 -13°C° 0 mm 2 mps 640 mmHg 69%
    06:00 -13°C° 0 mm 2 mps 640 mmHg 69%
    07:00 -13°C° 0 mm 2 mps 640 mmHg 69%
    08:00 -12°C° 0 mm 2 mps 640 mmHg 69%
    09:00 -10°C° 0 mm 2 mps 640 mmHg 68%
    10:00 -9°C° 0 mm 2 mps 640 mmHg 68%
    11:00 -8°C° 0 mm 2 mps 640 mmHg 67%
    12:00 -6°C° 0 mm 2 mps 640 mmHg 65%
    13:00 -5°C° 0 mm 2 mps 640 mmHg 64%
    14:00 -6°C° 0 mm 2 mps 640 mmHg 68%
    15:00 -7°C° 0 mm 2 mps 639 mmHg 72%
    16:00 -8°C° 0 mm 2 mps 639 mmHg 76%
    17:00 -9°C° 0 mm 2 mps 639 mmHg 77%
    18:00 -9°C° 0 mm 2 mps 639 mmHg 78%
    19:00 -10°C° 0 mm 2 mps 639 mmHg 79%
    20:00 -10°C° 0 mm 2 mps 639 mmHg 79%
    21:00 -10°C° 0 mm 2 mps 639 mmHg 80%
    22:00 -10°C° 0 mm 2 mps 639 mmHg 80%
    23:00 -10°C° 0 mm 2 mps 640 mmHg 80%

    Day after tomorrow, 14 December, Friday

    Time Temperature Precipitation Wind Pressure Humidity
    00:00 -10°C° 0 mm 2 mps 640 mmHg 81%
    01:00 -10°C° 0 mm 2 mps 640 mmHg 81%
    02:00 -10°C° 0 mm 2 mps 640 mmHg 82%
    03:00 -10°C° 0 mm 2 mps 640 mmHg 82%
    04:00 -10°C° 0 mm 2 mps 639 mmHg 82%
    05:00 -10°C° 0 mm 2 mps 640 mmHg 82%
    06:00 -9°C° 0 mm 1 mps 640 mmHg 83%
    07:00 -9°C° 0 mm 1 mps 640 mmHg 83%
    08:00 -8°C° 0 mm 1 mps 640 mmHg 82%
    09:00 -7°C° 0 mm 1 mps 641 mmHg 80%
    10:00 -6°C° 0 mm 1 mps 641 mmHg 79%
    11:00 -4°C° 0 mm 1 mps 642 mmHg 77%
    12:00 -3°C° 0 mm 1 mps 642 mmHg 75%
    13:00 -2°C° 0 mm 1 mps 642 mmHg 73%
    14:00 -3°C° 0 mm 1 mps 642 mmHg 78%
    15:00 -4°C° 0 mm 1 mps 642 mmHg 82%
    16:00 -6°C° 0 mm 1 mps 642 mmHg 87%
    17:00 -7°C° 0 mm 1 mps 642 mmHg 88%
    18:00 -8°C° 0 mm 1 mps 642 mmHg 89%
    19:00 -8°C° 0 mm 0 mps 643 mmHg 90%
    20:00 -8°C° 0 mm 1 mps 643 mmHg 90%
    21:00 -9°C° 0 mm 1 mps 643 mmHg 90%
    22:00 -9°C° 0 mm 1 mps 643 mmHg 90%
    23:00 -9°C° 0 mm 1 mps 644 mmHg 89%

    15 December, Saturday

    Time Temperature Precipitation Wind Pressure Humidity
    00:00 -9°C° 0 mm 1 mps 644 mmHg 89%
    01:00 -9°C° 0 mm 1 mps 644 mmHg 89%
    02:00 -10°C° 0 mm 1 mps 644 mmHg 89%
    03:00 -10°C° 0 mm 1 mps 644 mmHg 88%
    04:00 -10°C° 0 mm 1 mps 644 mmHg 87%
    05:00 -10°C° 0 mm 1 mps 645 mmHg 86%
    06:00 -10°C° 0 mm 1 mps 645 mmHg 85%
    07:00 -11°C° 0 mm 1 mps 646 mmHg 84%
    08:00 -9°C° 0 mm 1 mps 646 mmHg 82%
    09:00 -8°C° 0 mm 1 mps 647 mmHg 80%
    10:00 -7°C° 0 mm 1 mps 647 mmHg 77%
    11:00 -6°C° 0 mm 1 mps 647 mmHg 73%
    12:00 -3°C° 0 mm 1 mps 647 mmHg 69%
    13:00 -2°C° 0 mm 1 mps 648 mmHg 64%
    14:00 -3°C° 0 mm 1 mps 647 mmHg 69%
    15:00 -4°C° 0 mm 1 mps 647 mmHg 73%
    16:00 -7°C° 0 mm 1 mps 647 mmHg 78%
    17:00 -7°C° 0 mm 1 mps 647 mmHg 75%
    18:00 -8°C° 0 mm 1 mps 647 mmHg 72%
    19:00 -10°C° 0 mm 2 mps 647 mmHg 69%
    20:00 -9°C° 0 mm 2 mps 647 mmHg 65%
    21:00 -9°C° 0 mm 2 mps 647 mmHg 62%
    22:00 -9°C° 0 mm 2 mps 647 mmHg 59%
    23:00 -8°C° 0 mm 2 mps 647 mmHg 58%

    16 December, Sunday

    Time Temperature Precipitation Wind Pressure Humidity
    00:00 -7°C° 0 mm 2 mps 647 mmHg 56%
    01:00 -7°C° 0 mm 2 mps 647 mmHg 55%
    02:00 -6°C° 0 mm 2 mps 647 mmHg 54%
    03:00 -5°C° 0 mm 2 mps 647 mmHg 54%
    04:00 -5°C° 0 mm 2 mps 647 mmHg 53%
    05:00 -4°C° 0 mm 2 mps 647 mmHg 54%
    06:00 -4°C° 0 mm 2 mps 647 mmHg 55%
    07:00 -2°C° 0 mm 1 mps 647 mmHg 55%
    08:00 -3°C° 0.2 mm 2 mps 647 mmHg 60%
    09:00 -2°C° 0.2 mm 2 mps 647 mmHg 65%
    10:00 -1°C° 0.2 mm 2 mps 647 mmHg 70%
    11:00 -1°C° 0 mm 2 mps 647 mmHg 74%
    12:00 +1°C° 0 mm 2 mps 647 mmHg 78%
    13:00 +2°C° 0 mm 2 mps 647 mmHg 82%
    14:00 +2°C° 0 mm 2 mps 647 mmHg 83%
    15:00 +2°C° 0 mm 2 mps 647 mmHg 84%
    16:00 +2°C° 0 mm 2 mps 647 mmHg 85%
    17:00 +1°C° 0 mm 2 mps 647 mmHg 85%
    18:00 +1°C° 0 mm 2 mps 647 mmHg 85%
    19:00 +1°C° 0 mm 2 mps 646 mmHg 84%
    20:00 +1°C° 0 mm 2 mps 646 mmHg 84%
    21:00 +1°C° 0 mm 2 mps 646 mmHg 84%
    22:00 +1°C° 0 mm 2 mps 646 mmHg 84%
    23:00 +1°C° 0 mm 2 mps 646 mmHg 83%

    17 December, Monday

    Time Temperature Precipitation Wind Pressure Humidity
    00:00 +1°C° 0 mm 2 mps 645 mmHg 82%
    01:00 +1°C° 0 mm 2 mps 645 mmHg 81%
    02:00 +1°C° 0 mm 2 mps 645 mmHg 82%
    03:00 +1°C° 0 mm 2 mps 644 mmHg 82%
    04:00 +1°C° 0 mm 2 mps 644 mmHg 82%
    05:00 0°C° 0.1 mm 3 mps 644 mmHg 82%
    06:00 0°C° 0.1 mm 3 mps 645 mmHg 83%
    07:00 0°C° 0.1 mm 3 mps 645 mmHg 83%
    08:00 0°C° 0.9 mm 3 mps 645 mmHg 87%
    09:00 0°C° 0.9 mm 3 mps 646 mmHg 90%
    10:00 0°C° 0.9 mm 3 mps 646 mmHg 93%
    11:00 +1°C° 0.3 mm 2 mps 646 mmHg 93%
    12:00 +1°C° 0.3 mm 2 mps 646 mmHg 93%
    13:00 +2°C° 0.3 mm 2 mps 646 mmHg 93%
    14:00 0°C° 0.7 mm 3 mps 646 mmHg 94%
    15:00 0°C° 0.7 mm 3 mps 646 mmHg 94%
    16:00 0°C° 0.7 mm 3 mps 646 mmHg 94%
    17:00 -1°C° 0.3 mm 3 mps 646 mmHg 94%
    18:00 -1°C° 0.3 mm 3 mps 647 mmHg 94%
    19:00 -2°C° 0.3 mm 3 mps 647 mmHg 94%
    20:00 -4°C° 0 mm 3 mps 648 mmHg 94%
    21:00 -3°C° 0 mm 2 mps 648 mmHg 93%
    22:00 -4°C° 0 mm 2 mps 648 mmHg 93%
    23:00 -5°C° 0 mm 2 mps 648 mmHg 91%
    Show more